Location: Regona
(45.2000°N, 9.8167°E)
Time: 18:04:32
(UTC+00:00)

NOSS 3-1 (A) - Pass Details

Date: 07 June 2020
Orbit: 755 x 1458 km, 63.4° (Epoch: 16 June)

Event Time Altitude Azimuth Distance (km) Brightness Sun altitude
Rises 01:16:23 0° 321° (NW) 3,948 7.0 -17.0°
Reaches altitude 10° 01:18:55 10° 322° (NW) 3,080 6.4 -16.8°
Maximum altitude 01:26:30 87° 52° (NE) 1,312 4.1 -16.1°
Drops below altitude 10° 01:35:12 10° 143° (SE) 3,507 6.2 -15.3°
Sets 01:38:15 0° 144° (SE) 4,521 6.8 -15.0°
